Location: *
(51.5000°N, 0.1100°W)
Time: 05:39:00
(UTC+00:00)

Cosmos 1025 Rocket - Pass Details

Date: 11 August 2024
Orbit: 590 x 612 km, 82.5° (Epoch: 07 September)

Event Time Altitude Azimuth Distance (km) Brightness Sun altitude
Rises 02:39:12 0° 2° (N) 2,890 7.4 -15.5°
Reaches altitude 10° 02:42:24 10° 27° (NNE) 1,982 7.0 -15.1°
Maximum altitude 02:44:51 15° 61° (ENE) 1,699 6.3 -14.9°
Drops below altitude 10° 02:47:16 10° 95° (E) 1,976 6.1 -14.7°
Sets 02:50:26 0° 120° (ESE) 2,876 6.6 -14.3°
